This demonstration page uses our WeatherBlox Daily Observations layout. Learn more.

Left ArrowRight Arrow

39.01783, -85.05884

Hourly Observations for October 26, 2016

Temp ( °F °C ) Dew Point ( °F °C ) Humidity (%) Winds ( mph kmh ) Pressure ( in mb ) Visibility ( mi km ) Precip ( " mm )
12:52 am 00:52 Partly Cloudy 48 8.9 38 3.3 68 68 ENE 8 13 30.35 1028 10 16 0.00 0.00
1:52 am 01:52 Mostly Clear 45 7.2 38 3.3 77 77 E 8 13 30.33 1027 10 16 0.00 0.00
2:52 am 02:52 Partly Cloudy 45 7.2 37 2.8 74 74 E 6 9 30.33 1027 10 16 0.00 0.00
3:52 am 03:52 Partly Cloudy 47 8.3 38 3.3 71 71 ENE 9 15 30.33 1027 10 16 0.00 0.00
4:52 am 04:52 Partly Cloudy 44 6.7 38 3.3 79 79 E 6 9 30.30 1026 10 16 0.00 0.00
5:52 am 05:52 Mostly Cloudy 46 7.8 38 3.3 73 73 E 10 17 30.29 1026 10 16 0.00 0.00
6:52 am 06:52 Cloudy 47 8.3 38 3.3 71 71 E 12 19 30.28 1025 10 16 0.00 0.00
7:52 am 07:52 Mostly Cloudy 47 8.3 37 2.8 69 69 E 12 19 30.29 1026 10 16 0.00 0.00
8:52 am 08:52 Mostly Cloudy 47 8.3 38 3.3 71 71 E 8 13 30.29 1026 10 16 0.00 0.00
9:52 am 09:52 Cloudy 49 9.4 38 3.3 66 66 E 12 19 30.30 1026 10 16 0.00 0.00
10:52 am 10:52 Mostly Cloudy 50 10 38 3.3 63 63 ESE 10 17 30.29 1026 10 16 0.00 0.00
11:52 am 11:52 Mostly Cloudy 53 11.7 40 4.4 61 61 ESE 13 20 30.26 1025 10 16 0.00 0.00
12:52 pm 12:52 Mostly Cloudy 58 14.4 41 5 53 53 E 10 17 30.23 1024 10 16 0.00 0.00
1:52 pm 13:52 Mostly Cloudy 60 15.6 43 6.1 53 53 ESE 6 9 30.19 1022 10 16 0.00 0.00
2:52 pm 14:52 Mostly Cloudy 63 17.2 44 6.7 50 50 ESE 7 11 30.15 1021 10 16 0.00 0.00
3:52 pm 15:52 Mostly Cloudy 67 19.4 46 7.8 47 47 SSE 8 13 30.12 1020 10 16 0.00 0.00
4:52 pm 16:52 Mostly Cloudy 68 20 47 8.3 47 47 SE 9 15 30.11 1020 10 16 0.00 0.00
5:52 pm 17:52 Partly Cloudy 66 18.9 47 8.3 50 50 E 6 9 30.10 1019 10 16 0.00 0.00
6:52 pm 18:52 Cloudy 63 17.2 47 8.3 56 56 E 6 9 30.09 1019 10 16 0.00 0.00
7:52 pm 19:52 Cloudy 63 17.2 47 8.3 56 56 E 3 6 30.09 1019 10 16 0.00 0.00
8:52 pm 20:52 Cloudy 61 16.1 48 8.9 63 63 SE 8 13 30.08 1019 10 16 0.00 0.00
9:52 pm 21:52 Cloudy 61 16.1 49 9.4 65 65 SSE 5 7 30.06 1018 10 16 0.00 0.00
10:52 pm 22:52 Cloudy 61 16.1 49 9.4 65 65 S 6 9 30.06 1018 10 16 0.00 0.00
11:52 pm 23:52 Cloudy 63 17.2 51 10.6 65 65 SSW 6 9 30.05 1018 10 16 0.00 0.00

Powered by AerisWeather